Orbital Elements at Epoch 2459200.5 (2020-Dec-17.0) TDB
Reference: JPL 28 (heliocentric ecliptic J2000)
Element | Value | Uncertainty (1-sigma) | Units |
e | .1978563983634543 | 4.0691e-08 | |
a | 3.06881283590907 | 2.0003e-08 | au |
q | 2.461628580944563 | 1.244e-07 | au |
i | 4.733819814555195 | 4.718e-06 | deg |
node | 42.39084764133895 | 6.4774e-05 | deg |
peri | 26.5128726169892 | 6.6651e-05 | deg |
M | 72.19521596769816 | 1.4415e-05 | deg |
tp | 2458806.714292762719 (2019-Nov-19.21429276) | 7.733e-05 | TDB |
period | 1963.604550595836 5.38 | 1.9198e-05 5.256e-08 | d yr |
n | .1833363035804544 | 1.7925e-09 | deg/d |
Q | 3.675997090873576 | 2.396e-08 | au |
|
| | Orbit Determination Parameters
Additional Information
|